Location: LDNL
(36.4545°S, 141.6685°E)
Time: 11:32:46
(UTC+10:00)

Tiros 1 despin weight - Pass Details

Date: 12 August 2022
Orbit: 590 x 639 km, 48.2° (Epoch: 23 September)

Event Time Altitude Azimuth Distance (km) Brightness Sun altitude
Rises 22:02:39 0° 2° (N) 2,860 - -49.2°
Reaches altitude 10° 22:06:50 10° 39° (NE) 1,983 - -50.0°
Maximum altitude 22:07:54 11° 53° (NE) 1,942 - -50.2°
Drops below altitude 10° 22:08:57 10° 66° (ENE) 1,996 - -50.4°
Sets 22:13:13 0° 103° (ESE) 2,929 - -51.2°
